Total_Precipitation_Accumulation
1.70 1.69 1.71 1.76 1.70 1.77 1.76 1.65 1.42 1.22 1.07 0.92 0.79 0.81 0.87 0.89 1.00 1.08 1.27 1.28 1.19 1.38 1.70 1.95 1.93 1.90 1.83 1.72 1.58 1.48 1.41 1.35 1.19 1.01 0.81 0.69 0.62 0.56 0.53 0.50 0.49 0.47 0.47
2.01 1.99 2.08 2.08 1.87 1.87 1.96 1.98 1.80 1.58 1.33 1.16 1.02 0.96 0.94 0.92 1.02 1.17 1.35 1.47 1.39 1.37 1.71 2.08 2.22 2.27 2.22 2.13 1.93 1.70 1.58 1.48 1.38 1.22 1.06 0.89 0.80 0.74 0.68 0.61 0.56 0.51 0.48
2.30 2.26 2.37 2.37 2.07 1.99 2.11 2.20 2.13 1.97 1.62 1.38 1.32 1.28 1.23 1.23 1.23 1.30 1.47 1.63 1.66 1.59 1.70 1.81 1.94 2.05 2.13 2.18 2.11 1.96 1.80 1.61 1.49 1.38 1.31 1.18 1.02 0.92 0.83 0.75 0.70 0.64 0.58
2.36 2.40 2.35 2.25 2.19 2.24 2.42 2.58 2.50 2.42 2.15 1.89 1.75 1.54 1.41 1.40 1.34 1.46 1.50 1.59 1.86 1.81 1.72 1.55 1.60 1.76 1.92 2.14 2.26 2.23 2.11 1.90 1.69 1.54 1.46 1.37 1.21 1.01 0.88 0.83 0.81 0.77 0.70
2.48 2.59 2.61 2.59 2.54 2.56 2.61 2.56 2.70 2.55 2.58 2.39 1.98 1.73 1.57 1.51 1.56 1.58 1.61 1.62 1.73 1.84 1.80 1.66 1.57 1.63 1.70 1.89 2.05 2.26 2.33 2.20 1.96 1.74 1.63 1.57 1.44 1.24 1.07 0.97 0.91 0.83 0.76
2.86 2.93 2.91 2.97 3.03 3.08 2.91 2.82 2.80 2.61 2.51 2.43 2.11 1.92 1.80 1.65 1.58 1.56 1.54 1.55 1.59 1.55 1.57 1.59 1.63 1.54 1.57 1.64 1.78 2.08 2.33 2.39 2.32 2.11 1.92 1.82 1.68 1.45 1.24 1.11 1.04 0.97 0.90
3.42 3.42 3.42 3.39 3.28 3.23 3.09 2.91 2.74 2.65 2.48 2.27 2.21 1.95 1.66 1.45 1.34 1.30 1.35 1.40 1.35 1.30 1.34 1.47 1.56 1.53 1.45 1.42 1.53 1.85 2.21 2.44 2.45 2.32 2.16 2.04 1.83 1.61 1.43 1.30 1.19 1.08 1.02
4.09 3.90 3.81 3.61 3.30 3.14 3.02 2.83 2.68 2.55 2.34 2.17 2.13 2.09 1.75 1.50 1.23 1.07 1.10 1.12 1.15 1.20 1.21 1.18 1.26 1.26 1.21 1.21 1.25 1.45 1.61 1.78 1.97 2.14 2.20 2.09 1.93 1.77 1.64 1.55 1.48 1.39 1.28
4.18 3.89 3.59 3.41 3.20 3.02 2.88 2.82 2.67 2.55 2.36 2.19 2.04 2.12 2.00 1.76 1.40 1.23 1.10 1.09 1.12 1.12 1.11 1.04 1.02 1.01 1.01 1.05 1.14 1.26 1.39 1.46 1.59 1.78 1.96 1.99 1.90 1.80 1.74 1.70 1.70 1.72 1.72
3.85 3.40 3.16 3.15 3.00 2.80 2.62 2.45 2.30 2.23 2.19 2.12 2.03 1.88 1.81 1.74 1.61 1.46 1.31 1.27 1.25 1.19 1.14 1.10 1.11 1.09 1.06 1.08 1.13 1.17 1.18 1.17 1.25 1.37 1.56 1.70 1.70 1.68 1.71 1.81 1.94 2.07 2.09
3.35 3.06 2.84 2.84 2.75 2.49 2.24 1.99 1.82 1.75 1.76 1.83 1.82 1.76 1.68 1.60 1.45 1.35 1.33 1.31 1.29 1.24 1.16 1.13 1.13 1.13 1.11 1.06 1.02 1.10 1.15 1.11 1.17 1.24 1.35 1.50 1.62 1.69 1.74 1.85 1.96 2.05 2.13
2.79 2.53 2.27 2.12 1.99 1.81 1.70 1.58 1.46 1.42 1.41 1.49 1.54 1.51 1.49 1.48 1.45 1.41 1.35 1.27 1.28 1.37 1.25 1.08 1.00 0.98 0.99 1.01 1.04 1.19 1.11 1.09 1.13 1.18 1.18 1.21 1.29 1.45 1.61 1.70 1.77 1.88 2.01
2.14 1.88 1.68 1.55 1.47 1.40 1.36 1.34 1.30 1.27 1.20 1.18 1.20 1.25 1.26 1.22 1.22 1.31 1.41 1.44 1.38 1.34 1.30 1.20 1.03 0.94 0.92 0.93 1.03 1.16 1.09 1.03 1.03 1.02 1.01 1.00 1.03 1.10 1.15 1.26 1.42 1.56 1.69
1.56 1.42 1.26 1.17 1.15 1.17 1.15 1.16 1.13 1.06 0.98 0.91 0.88 0.93 0.98 0.98 1.06 1.22 1.33 1.48 1.56 1.42 1.23 1.16 1.09 0.97 0.92 0.91 1.07 1.11 1.00 0.96 0.93 0.91 0.90 0.88 0.87 0.86 0.88 0.91 0.99 1.06 1.17
1.09 1.01 0.93 0.91 0.88 0.85 0.81 0.80 0.80 0.80 0.82 0.82 0.79 0.78 0.80 0.82 0.92 1.04 1.13 1.27 1.44 1.44 1.27 1.09 1.06 1.00 0.91 0.95 1.17 1.01 0.93 0.97 0.87 0.79 0.75 0.74 0.74 0.74 0.75 0.74 0.75 0.78 0.84
0.68 0.65 0.61 0.60 0.62 0.65 0.62 0.60 0.64 0.69 0.70 0.72 0.75 0.71 0.69 0.68 0.74 0.83 0.91 1.01 1.15 1.28 1.23 1.01 0.91 0.86 0.84 0.85 1.08 0.95 0.97 0.98 0.81 0.69 0.64 0.63 0.64 0.64 0.64 0.65 0.65 0.68 0.73
0.52 0.50 0.50 0.50 0.50 0.54 0.58 0.63 0.66 0.69 0.74 0.71 0.70 0.68 0.64 0.63 0.65 0.67 0.74 0.83 0.94 1.03 1.13 1.04 0.88 0.83 0.83 0.86 0.90 0.82 0.81 0.76 0.70 0.70 0.60 0.57 0.57 0.59 0.56 0.55 0.57 0.60 0.63
0.48 0.50 0.51 0.49 0.45 0.44 0.48 0.55 0.61 0.62 0.69 0.69 0.68 0.67 0.62 0.61 0.63 0.63 0.66 0.71 0.82 0.95 1.06 1.10 0.96 0.87 0.84 0.80 0.79 0.75 0.64 0.60 0.63 0.73 0.63 0.56 0.54 0.52 0.55 0.50 0.46 0.49 0.56
0.44 0.43 0.42 0.41 0.40 0.39 0.39 0.40 0.45 0.50 0.56 0.60 0.62 0.67 0.66 0.64 0.62 0.62 0.67 0.70 0.80 0.92 1.04 1.07 0.99 0.92 0.90 0.86 0.90 0.84 0.75 0.79 0.69 0.69 0.63 0.58 0.54 0.52 0.72 0.75 0.49 0.44 0.48
0.38 0.36 0.32 0.31 0.31 0.31 0.30 0.29 0.29 0.33 0.39 0.43 0.47 0.59 0.65 0.65 0.63 0.67 0.71 0.75 0.81 0.93 0.98 1.01 0.95 0.89 0.89 0.90 0.95 1.00 0.97 0.89 0.78 0.60 0.63 0.60 0.57 0.57 0.90 1.44 0.89 0.57 0.51
0.34 0.33 0.30 0.26 0.24 0.23 0.23 0.24 0.24 0.24 0.32 0.35 0.38 0.47 0.54 0.58 0.59 0.61 0.63 0.69 0.80 0.93 1.00 1.03 0.97 0.92 0.88 0.98 1.01 0.98 0.94 0.93 0.80 0.68 0.70 0.64 0.77 1.07 1.58 2.22 1.75 1.10 0.83
0.37 0.31 0.27 0.26 0.23 0.20 0.23 0.22 0.23 0.28 0.34 0.39 0.44 0.47 0.46 0.48 0.48 0.46 0.51 0.59 0.71 0.87 1.01 1.07 1.02 0.98 0.93 0.97 1.03 1.01 0.99 1.00 0.94 0.73 0.70 0.73 0.96 1.69 2.37 2.72 2.29 1.47 1.12
0.38 0.34 0.28 0.27 0.26 0.20 0.17 0.17 0.19 0.28 0.38 0.44 0.48 0.48 0.41 0.42 0.50 0.52 0.52 0.54 0.64 0.73 0.89 1.07 1.12 1.01 0.95 0.97 1.08 1.12 1.06 1.05 1.04 0.85 0.84 0.91 1.15 1.97 2.27 2.47 2.26 1.56 1.25
0.36 0.34 0.30 0.27 0.27 0.19 0.15 0.15 0.17 0.24 0.30 0.33 0.34 0.39 0.47 0.51 0.47 0.48 0.48 0.58 0.66 0.77 0.84 0.91 1.02 0.94 0.87 0.91 1.00 1.04 0.99 0.96 0.90 0.84 0.85 1.01 1.26 1.83 1.89 2.01 2.06 1.59 1.30
0.37 0.33 0.30 0.30 0.31 0.24 0.17 0.15 0.17 0.24 0.27 0.26 0.24 0.28 0.34 0.39 0.38 0.44 0.53 0.69 0.73 0.84 0.91 1.06 1.05 0.95 0.91 0.90 0.81 0.81 0.98 1.08 1.04 0.84 0.78 0.94 1.18 1.48 1.57 1.68 1.66 1.52 1.38
0.34 0.30 0.30 0.31 0.28 0.26 0.17 0.14 0.15 0.19 0.25 0.23 0.27 0.31 0.30 0.26 0.31 0.40 0.55 0.74 0.87 0.92 1.04 1.24 1.20 1.14 1.04 0.97 0.84 0.80 1.01 1.19 1.18 1.00 0.79 0.84 1.03 1.18 1.40 1.44 1.34 1.28 1.35